Regional Weather Roundup
Issued by NWS

Home | Current Version | Previous Version | Graphics & Text | Print | Product List | Glossary On
Versions: 1 2 3 4 5 6 7 8 9 10 11 12 13 14 15 16 17 18 19 20 21 22 23 24 25 26 27 28 29 30 31 32 33 34 35 36 37 38 39 40 41 42 43 44 45 46 47 48 49 50
000
ASUS43 KBIS 200610
RWRND

NORTH DAKOTA REGIONAL WEATHER ROUNDUP
NATIONAL WEATHER SERVICE BISMARCK ND
1200 AM CST MON NOV 20 2017

NOTE: "FAIR" INDICATES FEW OR NO CLOUDS BELOW 12,000 FEET WITH NO
SIGNIFICANT WEATHER AND/OR OBSTRUCTIONS TO VISIBILITY.


NDZ001>003-009>011-017-200700-
NORTHWEST NORTH DAKOTA

CITY           SKY/WX    TMP DP  RH WIND       PRES   REMARKS
WILLISTON      CLOUDY    25  19  78 SW5       29.51F WCI  19
6HR MIN TEMP:  24; 6HR MAX TEMP:  36;

MINOT          CLOUDY    36  23  59 SW14      29.51F
MINOT AFB      CLOUDY    32  22  67 SW8       29.49F
$$

NDZ018>021-031>035-040>046-200700-
SOUTHWEST NORTH DAKOTA

CITY           SKY/WX    TMP DP  RH WIND       PRES   REMARKS
BISMARCK       CLOUDY    28  21  75 SE5       29.62F
6HR MIN TEMP:  25; 6HR MAX TEMP:  36;

DICKINSON      CLOUDY    37  21  52 SW14      29.55F
GARRISON         N/A     31  24  75 S3        29.54F
6HR MIN TEMP:  27; 6HR MAX TEMP:  33;

HETTINGER ARPT CLOUDY    30  19  63 W6        29.63F
$$

NDZ004>008-012>016-024-026-027-054-200700-
NORTHEAST NORTH DAKOTA

CITY           SKY/WX    TMP DP  RH WIND       PRES   REMARKS
GRAND FORKS    CLOUDY    20  18  92 SE6       29.66F WCI  12
GRND FRKS AFB  CLEAR     15  13  92 S3        29.64F
DEVILS LAKE    CLOUDY    22  19  89 SE6       29.60F WCI  14
$$

NDZ022-023-025-028>030-036>039-047>053-200700-
SOUTHEAST NORTH DAKOTA

CITY           SKY/WX    TMP DP  RH WIND       PRES   REMARKS
FARGO          CLOUDY    23  21  92 S3        29.69F
6HR MIN TEMP:  22; 6HR MAX TEMP:  33;

JAMESTOWN      CLOUDY    23  19  85 CALM      29.63F
$$





USA.gov is the U.S. government's official web portal to all federal, state and local government web resources and services.